Weather History for KSFY - March, 2013

Change the Weather History Date:

Friday, March 29, 2013

  Actual Average (KCWI) Record (KCWI)
Temperature  
Mean Temperature 42 °F -  
Max Temperature 55 °F 53 °F 87 °F (1986)
Min Temperature 28 °F 34 °F 10 °F (1969)
Degree Days  
Heating Degree Days 24    
Moisture  
Dew Point 29 °F    
Average Humidity 62    
Maximum Humidity 95    
Minimum Humidity 33    
Precipitation  
Precipitation 0.00 in - - ()
Sea Level Pressure  
Sea Level Pressure 30.27 in    
Wind  
Wind Speed 3 mph (NNE)    
Max Wind Speed 8 mph    
Max Gust Speed -    
Visibility 10 miles    
Events      
Averages and records for this station are not official NWS values.
T = Trace of Precipitation, MM = Missing Value Source: NWS Daily Summary

Daily Weather History Graph

Daily Weather History Graph

Search for Another Location

Airport or City:

Trip Planner

Search our weather history database for the weather conditions in past years. The results will help you decide how hot, cold, wet, or windy it might be!

Date:

Astronomy

Mar. 29, 2013 Rise Set
Actual Time 6:47 AM CDT 7:23 PM CDT
Civil Twilight 6:19 AM CDT 7:51 PM CDT
Nautical Twilight 5:46 AM CDT 8:24 PM CDT
Astronomical Twilight 5:12 AM CDT 8:58 PM CDT
Moon 10:26 PM CDT (3/29) 7:53 AM CDT (3/29)
Length of Visible Light 13h 31m
Length of Day
12h 35m
Waning Gibbous, 93% of the Moon is Illuminated
Mar 29
Waning Gibbous
Apr 2
Last Quarter
Apr 10
New
Apr 18
First Quarter
Apr 25
Full

Hourly Weather History & Observations

Time (CDT) Temp. Windchill Dew Point Humidity Pressure Visibility Wind Dir Wind Speed Gust Speed Precip Events Conditions
12:15 AM 38.1 °F 35.7 °F 29.3 °F 71% 30.30 in 10.0 mi NE 3.5 mph - N/A   Overcast
12:35 AM 37.2 °F 33.6 °F 29.3 °F 73% 30.31 in 10.0 mi NE 4.6 mph - N/A   Overcast
12:55 AM 37.8 °F 35.3 °F 29.1 °F 71% 30.30 in 10.0 mi NE 3.5 mph - N/A   Overcast
1:15 AM 36.9 °F 34.3 °F 28.8 °F 72% 30.30 in 10.0 mi NE 3.5 mph - N/A   Overcast
1:35 AM 36.5 °F 33.9 °F 28.8 °F 74% 30.31 in 10.0 mi NE 3.5 mph - N/A   Overcast
1:55 AM 37.0 °F 34.5 °F 29.3 °F 74% 30.31 in 10.0 mi NE 3.5 mph - N/A   Overcast
2:15 AM 35.8 °F 31.9 °F 30.0 °F 80% 30.30 in 10.0 mi NE 4.6 mph - N/A   Overcast
2:35 AM 35.8 °F 33.0 °F 29.1 °F 77% 30.30 in 10.0 mi NNE 3.5 mph - N/A   Mostly Cloudy
2:55 AM 35.4 °F - 29.1 °F 78% 30.29 in 10.0 mi Calm Calm - N/A   Scattered Clouds
3:15 AM 35.8 °F 33.0 °F 28.9 °F 76% 30.29 in 10.0 mi NE 3.5 mph - N/A   Scattered Clouds
3:35 AM 33.4 °F - 27.9 °F 80% 30.29 in 10.0 mi Calm Calm - N/A   Scattered Clouds
3:55 AM 34.9 °F - 27.7 °F 75% 30.29 in 10.0 mi Calm Calm - N/A   Clear
4:15 AM 32.9 °F 29.8 °F 27.0 °F 79% 30.29 in 10.0 mi NNE 3.5 mph - N/A   Clear
4:35 AM 32.0 °F - 28.4 °F 87% 30.29 in 10.0 mi Calm Calm - N/A   Clear
4:55 AM 32.0 °F - 28.0 °F 85% 30.29 in 10.0 mi Calm Calm - N/A   Clear
5:15 AM 30.7 °F 26.0 °F 27.7 °F 88% 30.29 in 10.0 mi North 4.6 mph - N/A   Clear
5:35 AM 29.8 °F 26.3 °F 27.9 °F 92% 30.29 in 10.0 mi North 3.5 mph - N/A   Clear
5:55 AM 30.0 °F 26.5 °F 28.6 °F 94% 30.29 in 10.0 mi North 3.5 mph - N/A   Clear
6:15 AM 28.6 °F 23.5 °F 27.3 °F 95% 30.29 in 7.0 mi North 4.6 mph - N/A   Clear
6:35 AM 28.8 °F 25.0 °F 27.0 °F 93% 30.29 in 10.0 mi North 3.5 mph - N/A   Clear
6:55 AM 30.0 °F 25.2 °F 27.9 °F 92% 30.30 in 10.0 mi North 4.6 mph - N/A   Clear
7:15 AM 29.7 °F 26.1 °F 27.5 °F 92% 30.30 in 5.0 mi North 3.5 mph - N/A   Clear
7:35 AM 30.7 °F 26.0 °F 28.0 °F 90% 30.31 in 10.0 mi NNW 4.6 mph - N/A   Clear
7:55 AM 32.4 °F 27.9 °F 30.2 °F 92% 30.31 in 10.0 mi NNW 4.6 mph - N/A   Clear
8:15 AM 34.7 °F - 29.5 °F 81% 30.31 in 10.0 mi Calm Calm - N/A   Clear
8:35 AM 36.7 °F - 29.5 °F 75% 30.32 in 10.0 mi Calm Calm - N/A   Clear
8:55 AM 38.5 °F - 29.8 °F 71% 30.32 in 10.0 mi Calm Calm - N/A   Clear
9:15 AM 41.0 °F - 28.4 °F 61% 30.32 in 10.0 mi Calm Calm - N/A   Clear
9:35 AM 44.1 °F - 28.2 °F 54% 30.32 in 10.0 mi Calm Calm - N/A   Clear
9:55 AM 45.9 °F 44.6 °F 26.6 °F 47% 30.32 in 10.0 mi East 3.5 mph - N/A   Clear
10:15 AM 47.1 °F - 27.5 °F 47% 30.32 in 10.0 mi Calm Calm - N/A   Clear
10:35 AM 48.2 °F - 28.2 °F 46% 30.32 in 10.0 mi Calm Calm - N/A   Clear
10:55 AM 49.3 °F - 28.2 °F 44% 30.32 in 10.0 mi Calm Calm - N/A   Clear
11:15 AM 50.0 °F - 28.6 °F 44% 30.32 in 10.0 mi ESE 3.5 mph - N/A   Clear
11:55 AM 50.7 °F - 29.1 °F 43% 30.31 in 10.0 mi East 4.6 mph - N/A   Clear
12:15 PM 51.3 °F - 29.7 °F 44% 30.30 in 10.0 mi SSW 4.6 mph - N/A   Clear
12:35 PM 52.3 °F - 29.3 °F 41% 30.30 in 10.0 mi Calm Calm - N/A   Clear
12:55 PM 52.7 °F - 29.8 °F 42% 30.29 in 10.0 mi West 4.6 mph - N/A   Clear
1:15 PM 52.9 °F - 29.8 °F 41% 30.29 in 10.0 mi West 5.8 mph - N/A   Clear
1:35 PM 53.1 °F - 29.7 °F 41% 30.28 in 10.0 mi WSW 5.8 mph - N/A   Clear
1:55 PM 53.6 °F - 29.7 °F 40% 30.27 in 10.0 mi WSW 6.9 mph - N/A   Clear
2:15 PM 54.1 °F - 29.7 °F 39% 30.27 in 10.0 mi WSW 5.8 mph - N/A   Scattered Clouds
2:35 PM 54.5 °F - 29.8 °F 39% 30.26 in 10.0 mi WSW 5.8 mph - N/A   Scattered Clouds
2:55 PM 54.9 °F - 27.7 °F 35% 30.26 in 10.0 mi WSW 4.6 mph - N/A   Clear
3:15 PM 54.5 °F - 26.4 °F 34% 30.25 in 10.0 mi WSW 5.8 mph - N/A   Clear
3:35 PM 54.7 °F - 25.7 °F 33% 30.24 in 10.0 mi SW 5.8 mph - N/A   Clear
3:55 PM 54.7 °F - 26.2 °F 33% 30.24 in 10.0 mi SW 4.6 mph - N/A   Clear
4:15 PM 55.2 °F - 27.3 °F 34% 30.23 in 10.0 mi WSW 4.6 mph - N/A   Clear
4:35 PM 54.9 °F - 27.0 °F 34% 30.23 in 10.0 mi WSW 4.6 mph - N/A   Clear
4:55 PM 54.7 °F - 26.6 °F 34% 30.22 in 10.0 mi SW 3.5 mph - N/A   Clear
5:15 PM 54.9 °F - 26.2 °F 33% 30.22 in 10.0 mi Calm Calm - N/A   Clear
5:35 PM 54.5 °F - 26.4 °F 34% 30.22 in 10.0 mi WSW 3.5 mph - N/A   Clear
5:55 PM 54.3 °F - 27.7 °F 36% 30.22 in 10.0 mi SW 3.5 mph - N/A   Clear
6:15 PM 53.6 °F - 27.9 °F 37% 30.22 in 10.0 mi SSW 4.6 mph - N/A   Clear
6:35 PM 52.7 °F - 28.4 °F 39% 30.22 in 10.0 mi SSW 3.5 mph - N/A   Clear
6:55 PM 51.1 °F - 30.0 °F 44% 30.22 in 10.0 mi SSW 3.5 mph - N/A   Clear
7:15 PM 50.9 °F - 27.9 °F 41% 30.22 in 10.0 mi Calm Calm - N/A   Clear
7:35 PM 49.1 °F - 29.3 °F 46% 30.21 in 10.0 mi Calm Calm - N/A   Clear
7:55 PM 44.4 °F 42.0 °F 32.7 °F 64% 30.21 in 10.0 mi East 4.6 mph - N/A   Clear
8:15 PM 43.2 °F 41.5 °F 32.0 °F 65% 30.22 in 10.0 mi East 3.5 mph - N/A   Clear
8:35 PM 41.0 °F 37.1 °F 32.0 °F 70% 30.22 in 10.0 mi ENE 5.8 mph - N/A   Clear
8:55 PM 41.2 °F 37.3 °F 32.4 °F 71% 30.22 in 10.0 mi East 5.8 mph - N/A   Clear
9:15 PM 39.0 °F 33.4 °F 31.8 °F 75% 30.22 in 10.0 mi East 8.1 mph - N/A   Clear
9:35 PM 39.9 °F 35.1 °F 31.8 °F 73% 30.23 in 10.0 mi East 6.9 mph - N/A   Clear
9:55 PM 39.6 °F 35.4 °F 31.3 °F 72% 30.23 in 10.0 mi ENE 5.8 mph - N/A   Clear
10:15 PM 40.1 °F - 30.6 °F 69% 30.23 in 10.0 mi Calm Calm - N/A   Clear
10:35 PM 39.7 °F 36.5 °F 29.8 °F 68% 30.23 in 10.0 mi ENE 4.6 mph - N/A   Clear
10:55 PM 38.5 °F 36.1 °F 29.3 °F 70% 30.23 in 10.0 mi NE 3.5 mph - N/A   Clear
11:15 PM 38.3 °F 34.8 °F 29.1 °F 70% 30.22 in 10.0 mi ENE 4.6 mph - N/A   Clear
11:35 PM 37.2 °F - 28.9 °F 72% 30.22 in 10.0 mi Calm Calm - N/A   Clear
11:55 PM 38.7 °F - 28.8 °F 68% 30.22 in 10.0 mi Calm Calm - N/A   Scattered Clouds